Location: Zagreb
(45.8000°N, 16.0000°E)
Time: 09:33:41
(UTC+02:00)

X-37B - Pass Details

Date: 03 July 2022
Orbit: 328 x 343 km, 45.0° (Epoch: 12 August)

Event Time Altitude Azimuth Distance (km) Brightness Sun altitude
Rises 23:36:39 0° 277° (W) 2,095 4.7 -18.7°
Reaches altitude 10° 23:38:42 10° 270° (W) 1,260 3.4 -18.8°
Enters shadow 23:39:48 20° 259° (W) 844 2.3 -18.9°
